CW9849 Weather Reports


Display with metric or nautical units.
time (UTC)temp
F
wind
direction
speed
MPH
gust
MPH
rain 1hr
in
rain 24hr
in
rain mn
in
humidity
%
barometer
mb
20260502210050 53 137 3.0 6.0 0.00 0.02 0.02 88 1013.1
20260502204648 53 135 3.0 5.0 0.00 0.02 0.02 88 1013.1
20260502203107 53 113 1.0 3.0 0.00 0.02 0.02 87 1012.9
20260502201552 53 139 1.0 3.0 0.00 0.02 0.02 87 1012.9
20260502200045 53 124 1.0 3.0 0.01 0.02 0.02 87 1012.7
20260502194544 53 135 1.0 3.0 0.01 0.02 0.02 87 1012.6
20260502193057 53 145 2.0 3.0 0.01 0.02 0.02 87 1012.5
20260502191542 53 89 2.0 4.0 0.01 0.02 0.02 87 1012.5
20260502190045 53 113 2.0 5.0 0.00 0.01 0.01 87 1012.5
20260502184549 53 105 2.0 5.0 0.00 0.01 0.01 87 1012.5
20260502183039 54 117 2.0 6.0 0.00 0.01 0.01 87 1012.6
20260502181543 54 154 3.0 6.0 0.00 0.01 0.01 86 1012.7
20260502163030 54 124 5.0 9.0 0.00 0.01 0.01 87 1013.2
20260502161532 54 162 4.0 10.0 0.00 0.01 0.01 86 1013.5
20260502151523 54 123 6.0 11.0 0.00 0.01 0.01 86 1013.9
20260502123008 56 115 2.0 7.0 0.00 0.01 0.01 89 1014.8
20260502121608 56 102 5.0 9.0 0.00 0.01 0.01 89 1014.9
20260502114502 55 102 4.0 9.0 0.00 0.01 0.01 90 1015.4
20260502113127 55 105 3.0 8.0 0.00 0.01 0.01 90 1015.5
20260502111604 55 115 5.0 10.0 0.00 0.01 0.01 90 1015.6
20260502110057 55 102 5.0 9.0 0.00 0.01 0.01 90 1015.7
20260502104606 55 108 3.0 8.0 0.00 0.01 0.01 90 1016.2
20260502103055 55 102 3.0 7.0 0.00 0.01 0.01 90 1016.2
20260502101605 55 155 3.0 7.0 0.00 0.01 0.01 90 1016.3
20260502071526 53 170 5.0 10.0 0.01 0.01 0.01 90 1017.3
20260502070038 53 166 6.0 12.0 0.01 0.01 0.01 90 1017.3
20260502064525 53 164 6.0 11.0 0.00 0.00 0.00 90 1017.5
20260502063029 53 154 6.0 10.0 0.00 0.00 0.00 90 1017.5
20260502061520 53 141 5.0 10.0 0.00 0.00 0.00 90 1017.5
20260502060033 53 165 6.0 9.0 0.00 0.00 0.00 90 1017.5
20260502054531 53 155 4.0 9.0 0.00 0.00 0.00 90 1017.4
20260502053016 53 142 5.0 11.0 0.00 0.00 0.00 90 1017.5
20260502051514 53 147 5.0 8.0 0.00 0.00 0.00 90 1017.6
20260502050019 53 165 5.0 9.0 0.00 0.00 0.00 90 1017.6
20260502044516 53 150 4.0 10.0 0.00 0.01 0.00 90 1017.7
20260502043009 53 156 7.0 11.0 0.00 0.01 0.00 90 1017.8
20260502041520 53 133 5.0 11.0 0.00 0.01 0.00 90 1017.8
20260502040006 53 152 6.0 10.0 0.00 0.01 0.00 90 1017.9
20260502034504 53 150 5.0 10.0 0.00 0.01 0.00 90 1018.2
20260502033005 53 155 3.0 8.0 0.00 0.01 0.00 90 1018.3
20260502031602 53 144 6.0 10.0 0.00 0.01 0.00 90 1018.5
20260502030118 53 155 6.0 12.0 0.00 0.01 0.00 89 1018.8
20260502024605 53 164 5.0 10.0 0.00 0.01 0.00 89 1018.9
20260502023128 53 155 4.0 6.0 0.00 0.01 0.00 89 1019.0
20260502021553 53 132 4.0 7.0 0.00 0.01 0.00 89 1019.1
20260502020052 53 197 5.0 9.0 0.00 0.01 0.00 89 1019.3
20260502014603 53 168 4.0 10.0 0.00 0.01 0.00 89 1019.4
20260502013055 53 163 5.0 9.0 0.00 0.01 0.00 89 1019.5
20260502011603 53 166 4.0 6.0 0.00 0.01 0.00 89 1019.5
20260502010044 53 141 3.0 6.0 0.00 0.01 0.00 89 1019.7
20260502004542 53 140 3.0 8.0 0.00 0.01 0.00 89 1020.0
20260502003040 52 152 5.0 8.0 0.00 0.01 0.00 89 1020.5
20260502001542 52 143 3.0 8.0 0.00 0.01 0.00 88 1020.5
20260502000053 52 140 4.0 7.0 0.00 0.01 0.00 88 1020.7
20260501234536 52 164 5.0 9.0 0.00 0.01 0.00 88 1020.5
20260501233034 53 154 5.0 9.0 0.00 0.01 0.00 88 1020.6
20260501231530 53 189 4.0 8.0 0.00 0.01 0.00 88 1020.7
20260501230106 53 215 6.0 10.0 0.00 0.01 0.00 88 1020.9
20260501224528 53 173 7.0 12.0 0.00 0.01 0.01 88 1021.0
20260501223027 53 174 9.0 13.0 0.00 0.01 0.01 88 1021.1
20260501221526 53 196 5.0 8.0 0.00 0.01 0.01 87 1021.0
20260501220025 53 160 5.0 8.0 0.00 0.01 0.01 87 1021.0
20260501214524 53 164 5.0 8.0 0.00 0.01 0.01 87 1021.1
20260501213027 53 178 4.0 7.0 0.00 0.01 0.01 87 1021.2
20260501211523 53 137 4.0 7.0 0.00 0.01 0.01 86 1021.2